Regional Weather Roundup
Issued by NWS Newport/Morehead, NC

Current Version | Previous Version | Graphics & Text | Print | Product List | Glossary On
Versions: 1 2 3 4 5 6 7 8 9 10 11 12 13 14 15 16 17 18 19 20 21 22 23 24 25 26 27 28 29 30 31 32 33 34 35 36 37 38 39 40 41 42 43 44 45 46 47 48 49 50
000 ASUS42 KMHX 190625 RWRMHX WEATHER ROUNDUP FOR EASTERN NORTH CAROLINA NATIONAL WEATHER SERVICE NEWPORT/MOREHEAD CITY NC 200 AM EDT THU OCT 19 2017 NOTE: "FAIR" INDICATES FEW OR NO CLOUDS BELOW 12,000 FEET WITH NO SIGNIFICANT WEATHER AND/OR OBSTRUCTIONS TO VISIBILITY NCZ015>017-031-032-045>047-102-103-190700- NORTH COAST CITY SKY/WX TMP DP RH WIND PRES REMARKS EDENTON CLEAR 55 52 92 CALM 30.31S ELIZABETH CITY CLEAR 59 56 89 NE8 30.30F KITTY HAWK CLEAR 64 56 77 CALM 30.28F MANTEO CLEAR N/A N/A N/A NE6 30.30S $$ NCZ045>047-081-094-103-104-190700- CENTRAL COAST CITY SKY/WX TMP DP RH WIND PRES REMARKS FRISCO MOCLDY 67 63 87 NE6 30.26S $$ NCZ095-097-098-100-101-190700- SOUTHERN COAST CITY SKY/WX TMP DP RH WIND PRES REMARKS BEAUFORT PTCLDY 62 59 90 N8 30.26S CEDAR ISLAND NOT AVBL JACKSONVILLE MOCLDY 59 57 93 N7 30.27S PINEY ISLAND N/A N/A N/A N/A N9 30.26F WILMINGTON CLEAR 57 54 89 NE8 30.26F $$ NCZ011>013-027>030-043-044-078>080-089-090>093-098-190700- COASTAL PLAIN CITY SKY/WX TMP DP RH WIND PRES REMARKS AHOSKIE CLOUDY 46 46 100 CALM 30.31F CLINTON CLEAR 50 50 100 CALM 30.30S ELIZABETHTOWN NOT AVBL GOLDSBORO CLEAR 52 50 93 CALM 30.28S FOG GREENVILLE FOG 46 46 100 CALM 30.30S VSB 1 HAVELOCK PTCLDY 61 58 90 NE8 30.28F KENANSVILLE CLEAR 48 46 93 CALM 30.29S FOG KINSTON CLEAR 49 49 98 CALM 30.30S NEW BERN CLOUDY 59 57 93 N5 30.29F RICHLANDS PTCLDY 54 53 97 N5 30.28F ROCKY MOUNT CLEAR 48 48 100 CALM 30.31S FOG WASHINGTON MOCLDY 56 54 92 E7 30.30S WHITEVILLE CLEAR 54 51 87 CALM 30.27S $$ AMZ130-135-150-152-154-156-158-170-250-252-270-ANZ085-086-088-633-658-670-190700- MARINE OBSERVATIONS STATION/POSITION TIME TEMP WIND PRES WAVE SWELL AIR SEA DIR/SP/G HT/PER HT/PER (UTC) (F) (DEG/KT/KT) (MB) (FT/S) (FT/S) CHESAPEAKE LIGHT NOT AVBL 64 E VA BEACH 0550 67 67 60/ 8/ 10 1026.4 3/ 8 3/ 8 DUCK 0600 67 68 50/ 8/ 9 1025.6 2 E DUCK 0600 69 N/A 3/10 2/11 OREGON INLET 0600 67 65 40/ 9/ 12 1025.3 13E OREGON INLT 0548 71 N/A 5/ 8 3/ 8 HATTERAS CG 0600 67 68 40/ 9/ 12 1024.4 DIAMOND BUOY 0550 74 82 90/ 10/ 14 1024.0 5/ 9 5/ 9 CAPE LOOKOUT 0600 64 360/ 12/ 14 1023.9 BEAUFORT LAB 0600 64 69 10/ 7/ 10 1024.7 30 SE NEW RVR IN 0608 70 40/ 17/ 21 1023.2 30 SE NEW RVR IN NOT AVBL 27 SE WRIGHTSVLE 0608 71 77 70/ 17/ 23 1023.1 5 SE WRIGHTSVLE 0608 67 74 40/ 14/ 21 1024.0 225 S CAPE HAT 0550 77 80 70/ 17/ 21 1019.8 8/ 8 3/ 9 41 SE CHARLESTON 0610 73 79 30/ 21/ 25 1021.7 $$

USA.gov is the U.S. government's official web portal to all federal, state and local government web resources and services.